Showing default

HXMT, 42758

Orbit data source: Space-Track

HXMT, 42758 is a payload satellite owned by CNSA (CN) in LEO that was launched on Thu, 15 Jun 2017 UTC via a CHANG ZHENG 4B launch vehicle from the Jiuquan Satellite Launch Center, China (JSC). Payloads include a variety of satellites, spacecraft, and rockets equipped with specific instruments for various scientific and technological missions. These include communications satellites like Starlink; space stations such as the ISS; scientific satellites like the Hubble; Earth observation satellites from companies like Planet Labs, Umbra, and HawkEye 360; GPS; miniature CubeSats for education and research; and military/defense satellites.

Loading next visibility...
HXMT details
Identifier
42758, 2017-034A
Orbit
LEO
Last TLE update5 hours ago
Origin
Flag of CNCNSA (CN / PRC)
ManufacturerCAST
MissionOperational Civil Astronomy
Bus & MotorZY, Unknown motor
Mass3,000 kg wet, ~2,900 kg dry
Launch date (UTC)
2017-06-15 (7 years ago)
Launch vehicle
CHANG ZHENG 4B
Launch site
Jiuquan Satellite Launch Center, China (JSC)
Object type
Payload
Rocket body
Debris
Shape & HBRBox + 2 Pan, 10 m
Radar Cross Section10.304 m², Large (>1 m²)

Expand to show TLE details & history

TLE from 5 hours ago
0 HXMT
1 42758U 17034A   24348.14477100  .00009744  00000-0  45545-3 0  9996
2 42758  43.0150   0.8437 0011277 193.2947 166.7606 15.19872307414033
Epoch: 2024-12-13T03:28Z
Definitive object data (Epoch: 2024-12-13T03:28:28.214Z)
Latitude-0.00003°
Longitude-133.58885°
Altitude513.561 km
Speed7.605 km/s
True Right ascension00h 03m 22s
True Declination0° 00' 00"
Sunlit
Object was in daylight at TLE epoch
Visualization TLE readout
Latitude-24.07696°
Longitude-163.09552°
Altitude516.92 km
Speed7.603 km/s
Apparent Right ascension20h 33m 09s
Apparent Declination-34° 24' 14"
Sunlit
Object is in daylight
Visualization observer readout
Local Sidereal Time06:32:17
Azimuth273.323° WNW
Elevation-65.419°
Doppler factor1
Orbital elements
Apogee altitude515.928 km
Perigee altitude500.397 km
Semi-major axis6,886.299 km
Eccentricity0.0011277
Inclination43.015°
RAAN0.8437°
Arg. of periapsis193.2947°
True anomaly166.79015°
Mean anomaly166.7606°
Eccentric anomaly166.77538°
Mean motion3.79808 °/min
BSTAR0.00045545
Orbital period94.78 mins
Loading maneuver chart data...
Loading historical data...
Loading historical data...
Loading historical data...
Loading historical data...
Loading historical data...
Loading historical data...
Loading historical data...

HXMT Visibility forecast

Observer location: undefined°, undefined

Span
Click to sort rows by Start time (UTC) header in descending order
Start Az.
Max El. time (UTC)
Max El. Az.
Max El.
End time (UTC)
End Az.
7 mins2024-12-13 08:35:45.001Z288.951° WNW2024-12-13 08:39:45.001Z30.183° NE42.471°2024-12-13 08:42:45.001Z94.52° ESE
5 mins2024-12-13 10:16:45.001Z267.928° W2024-12-13 10:18:45.001Z218.593° SW32.024°2024-12-13 10:21:45.001Z145.207° SSE
6 mins2024-12-14 04:57:45.001Z238.746° WSW2024-12-14 04:59:45.001Z197.396° SSW42.887°2024-12-14 05:03:45.001Z73.96° E
5 mins2024-12-14 06:37:45.001Z288.606° WNW2024-12-14 06:39:45.001Z2.698° NNE38.991°2024-12-14 06:42:45.001Z71.296° E
|